Weather History for Monett, MO

Change the Weather History Date:

Monday, November 12, 2012

  Actual Average (KJLN) Record (KJLN)
Temperature  
Mean Temperature 34 °F 50 °F  
Max Temperature 44 °F 61 °F 81 °F (1999)
Min Temperature 24 °F 40 °F 14 °F (1976)
Degree Days  
Heating Degree Days 31 15  
Month to date heating degree days 155  
Since 1 July heating degree days 407  
Cooling Degree Days 0 0  
Month to date cooling degree days 5  
Year to date cooling degree days 1696  
Moisture  
Dew Point 25 °F    
Average Humidity 69    
Maximum Humidity 93    
Minimum Humidity 43    
Precipitation  
Precipitation 0.00 in 0.14 in 3.24 in (1985)
Month to date precipitation 1.59  
Year to date precipitation 41.54  
Sea Level Pressure  
Sea Level Pressure 30.38 in    
Wind  
Wind Speed 6 mph (WSW)    
Max Wind Speed 15 mph    
Max Gust Speed 22 mph    
Visibility 10 miles    
Events      
T = Trace of Precipitation, MM = Missing Value Source: NWS Daily Summary

Daily Weather History Graph

Daily Weather History Graph

Search for Another Location

Airport:

Trip Planner

Search our weather history database for the weather conditions in past years. The results will help you decide how hot, cold, wet, or windy it might be!

Date:

Astronomy

Nov. 12, 2012 Rise Set
Actual Time 6:51 AM CST 5:08 PM CST
Civil Twilight 6:24 AM CST 5:35 PM CST
Nautical Twilight 5:53 AM CST 6:06 PM CST
Astronomical Twilight 5:22 AM CST 6:37 PM CST
Moon 5:19 AM CST (11/12) 4:13 PM CST (11/12)
Length of Visible Light 11h 11m
Length of Day
10h 16m
Waning Crescent, 2% of the Moon is Illuminated
Nov 12
Waning Crescent
Nov 13
New
Nov 20
First Quarter
Nov 28
Full
Dec 6
Last Quarter

Hourly Weather History & Observations

Time (CST) Temp. Windchill Dew Point Humidity Pressure Visibility Wind Dir Wind Speed Gust Speed Precip Events Conditions
12:15 AM 30.2 °F 23.4 °F 28.4 °F 93% 30.24 in 10.0 mi NW 6.9 mph - N/A   Clear
12:35 AM 30.2 °F 22.6 °F 26.6 °F 86% 30.25 in 10.0 mi NNW 8.1 mph - N/A   Clear
12:55 AM 30.2 °F 23.4 °F 24.8 °F 80% 30.25 in 10.0 mi NW 6.9 mph - N/A   Clear
1:35 AM 30.2 °F 25.4 °F 24.8 °F 80% 30.27 in 10.0 mi NW 4.6 mph - N/A   Clear
1:55 AM 30.2 °F 26.7 °F 24.8 °F 80% 30.28 in 10.0 mi NW 3.5 mph - N/A   Clear
2:15 AM 28.4 °F 24.6 °F 24.8 °F 86% 30.28 in 10.0 mi NW 3.5 mph - N/A   Clear
2:35 AM 28.4 °F 24.6 °F 24.8 °F 86% 30.29 in 10.0 mi NW 3.5 mph - N/A   Clear
2:55 AM 28.4 °F 24.6 °F 23.0 °F 80% 30.29 in 10.0 mi NW 3.5 mph - N/A   Clear
3:15 AM 28.4 °F - 24.8 °F 86% 30.29 in 10.0 mi Calm Calm - N/A   Clear
3:55 AM 28.4 °F 24.6 °F 23.0 °F 80% 30.31 in 10.0 mi WNW 3.5 mph - N/A   Clear
4:15 AM 28.4 °F 24.6 °F 23.0 °F 80% 30.32 in 10.0 mi WNW 3.5 mph - N/A   Clear
4:35 AM 26.6 °F 22.6 °F 23.0 °F 86% 30.32 in 10.0 mi West 3.5 mph - N/A   Clear
4:55 AM 26.6 °F - 23.0 °F 86% 30.33 in 10.0 mi Calm Calm - N/A   Clear
5:15 AM 26.6 °F - 23.0 °F 86% 30.34 in 10.0 mi Calm Calm - N/A   Clear
5:35 AM 26.6 °F - 23.0 °F 86% 30.34 in 10.0 mi Calm Calm - N/A   Clear
5:55 AM 26.6 °F 22.6 °F 23.0 °F 86% 30.35 in 10.0 mi WSW 3.5 mph - N/A   Clear
6:55 AM 24.8 °F 20.5 °F 23.0 °F 93% 30.38 in 10.0 mi WSW 3.5 mph - N/A   Clear
7:15 AM 24.8 °F - 23.0 °F 93% 30.38 in 10.0 mi Calm Calm - N/A   Clear
7:35 AM 26.6 °F - 23.0 °F 86% 30.38 in 10.0 mi Calm Calm - N/A   Clear
7:55 AM 26.6 °F 22.6 °F 23.0 °F 86% 30.37 in 10.0 mi South 3.5 mph - N/A   Clear
8:15 AM 28.4 °F 23.3 °F 24.8 °F 86% 30.39 in 10.0 mi SW 4.6 mph - N/A   Clear
8:35 AM 30.2 °F 26.7 °F 24.8 °F 80% 30.40 in 10.0 mi SW 3.5 mph - N/A   Clear
8:55 AM 32.0 °F 27.5 °F 23.0 °F 69% 30.41 in 10.0 mi SW 4.6 mph - N/A   Clear
9:15 AM 32.0 °F 27.5 °F 26.6 °F 80% 30.41 in 10.0 mi SSW 4.6 mph - N/A   Clear
9:35 AM 33.8 °F 28.6 °F 24.8 °F 70% 30.41 in 10.0 mi SSW 5.8 mph - N/A   Clear
9:55 AM 35.6 °F 29.9 °F 23.0 °F 60% 30.42 in 10.0 mi SW 6.9 mph - N/A   Clear
10:15 AM 35.6 °F 29.2 °F 23.0 °F 60% 30.42 in 10.0 mi WSW 8.1 mph - N/A   Clear
10:35 AM 37.4 °F 30.3 °F 23.0 °F 56% 30.42 in 10.0 mi WSW 10.4 mph - N/A   Clear
10:55 AM 39.2 °F 32.5 °F 24.8 °F 56% 30.42 in 10.0 mi West 10.4 mph - N/A   Clear
11:15 AM 39.2 °F 34.2 °F 23.0 °F 52% 30.42 in 10.0 mi West 6.9 mph - N/A   Clear
11:35 AM 41.0 °F 35.2 °F 21.2 °F 45% 30.41 in 10.0 mi WSW 9.2 mph - N/A   Clear
11:55 AM 41.0 °F 36.4 °F 23.0 °F 49% 30.40 in 10.0 mi WSW 6.9 mph - N/A   Clear
12:15 PM 42.8 °F 36.6 °F 23.0 °F 46% 30.40 in 10.0 mi West 11.5 mph 16.1 mph N/A   Clear
12:35 PM 42.8 °F 37.0 °F 23.0 °F 46% 30.40 in 10.0 mi WSW 10.4 mph - N/A   Clear
12:55 PM 44.6 °F 39.2 °F 23.0 °F 43% 30.39 in 10.0 mi West 10.4 mph 16.1 mph N/A   Clear
1:15 PM 44.6 °F 38.4 °F 24.8 °F 46% 30.39 in 10.0 mi West 12.7 mph - N/A   Clear
1:35 PM 44.6 °F 38.4 °F 23.0 °F 43% 30.39 in 10.0 mi West 12.7 mph 18.4 mph N/A   Clear
1:55 PM 44.6 °F 38.4 °F 23.0 °F 43% 30.39 in 10.0 mi WSW 12.7 mph - N/A   Clear
2:55 PM 44.6 °F 37.8 °F 26.6 °F 49% 30.39 in 10.0 mi West 15.0 mph - N/A   Clear
3:15 PM 44.6 °F 38.4 °F 24.8 °F 46% 30.39 in 10.0 mi West 12.7 mph 21.9 mph N/A   Clear
3:35 PM 44.6 °F 38.4 °F 26.6 °F 49% 30.39 in 10.0 mi WSW 12.7 mph 17.3 mph N/A   Clear
3:55 PM 44.6 °F 38.4 °F 24.8 °F 46% 30.40 in 10.0 mi West 12.7 mph - N/A   Clear
4:15 PM 44.6 °F 38.8 °F 24.8 °F 46% 30.40 in 10.0 mi West 11.5 mph - N/A   Clear
4:35 PM 42.8 °F 38.0 °F 24.8 °F 49% 30.40 in 10.0 mi West 8.1 mph - N/A   Clear
4:55 PM 42.8 °F 39.3 °F 26.6 °F 53% 30.40 in 10.0 mi West 5.8 mph - N/A   Clear
5:15 PM 41.0 °F 38.0 °F 26.6 °F 57% 30.40 in 10.0 mi WSW 4.6 mph - N/A   Clear
5:35 PM 41.0 °F 38.0 °F 26.6 °F 57% 30.40 in 10.0 mi SW 4.6 mph - N/A   Clear
5:55 PM 37.4 °F 33.8 °F 26.6 °F 65% 30.41 in 10.0 mi SW 4.6 mph - N/A   Clear
6:15 PM 37.4 °F 33.8 °F 26.6 °F 65% 30.41 in 10.0 mi SW 4.6 mph - N/A   Clear
6:35 PM 37.4 °F 33.8 °F 26.6 °F 65% 30.41 in 10.0 mi South 4.6 mph - N/A   Clear
6:55 PM 37.4 °F 33.8 °F 26.6 °F 65% 30.42 in 10.0 mi SSW 4.6 mph - N/A   Clear
7:35 PM 35.6 °F 32.8 °F 26.6 °F 70% 30.42 in 10.0 mi SW 3.5 mph - N/A   Clear
7:55 PM 35.6 °F - 26.6 °F 70% 30.43 in 10.0 mi Calm Calm - N/A   Clear
8:15 PM 35.6 °F - 26.6 °F 70% 30.43 in 10.0 mi Calm Calm - N/A   Clear
8:35 PM 33.8 °F 30.8 °F 26.6 °F 75% 30.44 in 10.0 mi South 3.5 mph - N/A   Clear
8:55 PM 33.8 °F 30.8 °F 26.6 °F 75% 30.44 in 10.0 mi South 3.5 mph - N/A   Clear
9:15 PM 33.8 °F 29.6 °F 26.6 °F 75% 30.44 in 10.0 mi South 4.6 mph - N/A   Clear
9:35 PM 33.8 °F 29.6 °F 26.6 °F 75% 30.44 in 10.0 mi South 4.6 mph - N/A   Clear
9:55 PM 33.8 °F 30.8 °F 24.8 °F 70% 30.44 in 10.0 mi South 3.5 mph - N/A   Clear
10:15 PM 32.0 °F 27.5 °F 26.6 °F 80% 30.45 in 10.0 mi South 4.6 mph - N/A   Clear
10:35 PM 32.0 °F 27.5 °F 24.8 °F 75% 30.44 in 10.0 mi SSW 4.6 mph - N/A   Clear
10:55 PM 32.0 °F 27.5 °F 24.8 °F 75% 30.45 in 10.0 mi South 4.6 mph - N/A   Clear
11:15 PM 32.0 °F 27.5 °F 24.8 °F 75% 30.45 in 10.0 mi South 4.6 mph - N/A   Clear
11:35 PM 32.0 °F 27.5 °F 24.8 °F 75% 30.45 in 10.0 mi South 4.6 mph - N/A   Clear
11:55 PM 32.0 °F 27.5 °F 24.8 °F 75% 30.45 in 10.0 mi South 4.6 mph - N/A   Clear